Find Starlink 1784

NORAD ID: 46687 Int'l Des: 2020-073 Owner: SPXS Country: US Constellation: starlink operational
LEOCIRCULAR

Live-Position

3D-Globus wird geladen...

Über Starlink 1784

Beschreibung wird geladen...

Nächste Überflüge

Passes for default location (London). Set your location on the main map for personalized predictions.

Höhenverlauf

Loading altitude history...

Zweizeiliger Elementsatz

1 46687U 20073T 26121.55194376 .00135322 00000-0 96207-3 0 9998
2 46687 53.0395 286.2358 0000632 132.0269 228.0802 15.72977081306194
Epoch: 1. Mai 2026 • Age: 5 hours

Aktueller Status

Höhe 350.0 km
Geschwindigkeit 7.70 km/s
Subsatellitenpunkt 13.76°N, 42.76°W
Startdatum 18. Okt. 2020
Alter 5.5 years
Typ internet

Technische Details

Klassifizierung Payload
Masse 260.00 kg
Trockenmasse 248.00 kg
Gesamtmasse 260.00 kg
Länge 0.20 m
Durchmesser 2.80 m
Spannweite 9.00 m
Form Box + pan
Hersteller SPXS
Bus-Typ Starlink
Phasenstatus In Orbit
Besitzer/Staat SPXS/US

Most Searched